,,,PA_Meas_PMT16A,,PR_Meas_QMR101_102,,RH_Meas_QMH101,,SR_Meas_QMS101,,TA_Meas_QMH101,,GenWind,,GenWind,
date,time,status,PA,status,PR,status,RH,status,SR,status,TA,status,DirAvg,status,SpdAvg,
2011-01-09, 00:00:04,VALID,1006.93,VALID,0,VALID,103.832,VALID,0,VALID,24.5905,VALID,73,VALID,0,
2011-01-09, 00:01:04,VALID,1006.92,VALID,0,VALID,103.848,VALID,0,VALID,24.6099,VALID,73,VALID,0,
2011-01-09, 00:02:04,VALID,1006.89,VALID,0,VALID,103.848,VALID,0.105969,VALID,24.5886,VALID,73,VALID,0,
2011-01-09, 00:03:04,VALID,1006.88,VALID,0,VALID,103.84,VALID,0,VALID,24.5905,VALID,72,VALID,0.149219,
2011-01-09, 00:04:04,VALID,1006.87,VALID,0,VALID,103.855,VALID,0,VALID,24.571,VALID,65,VALID,0,
2011-01-09, 00:05:04,VALID,1006.88,VALID,0,VALID,103.863,VALID,0,VALID,24.5886,VALID,65,VALID,0,
2011-01-09, 00:06:04,VALID,1006.88,VALID,0,VALID,103.893,VALID,0,VALID,24.5905,VALID,65,VALID,0,
2011-01-09, 00:07:04,VALID,1006.87,VALID,0,VALID,103.901,VALID,0,VALID,24.5691,VALID,65,VALID,0,
2011-01-09, 00:08:04,VALID,1006.86,VALID,0,VALID,103.909,VALID,0,VALID,24.5691,VALID,65,VALID,0,
2011-01-09, 00:09:04,VALID,1006.86,VALID,0,VALID,103.916,VALID,0,VALID,24.5496,VALID,65,VALID,0,
2011-01-09, 00:10:04,VALID,1006.84,VALID,0,VALID,103.901,VALID,0,VALID,24.5301,VALID,65,VALID,0,
2011-01-09, 00:11:04,VALID,1006.84,VALID,0,VALID,103.916,VALID,0,VALID,24.5301,VALID,65,VALID,0,
2011-01-09, 00:12:04,VALID,1006.85,VALID,0,VALID,103.931,VALID,0,VALID,24.5515,VALID,65,VALID,0,
2011-01-09, 00:13:04,VALID,1006.81,VALID,0,VALID,103.954,VALID,0,VALID,24.5106,VALID,65,VALID,0,
2011-01-09, 00:14:04,VALID,1006.81,VALID,0,VALID,103.947,VALID,0,VALID,24.532,VALID,65,VALID,0,
2011-01-09, 00:15:04,VALID,1006.82,VALID,0,VALID,103.939,VALID,0,VALID,24.5125,VALID,65,VALID,0,
2011-01-09, 00:16:04,VALID,1006.81,VALID,0,VALID,103.947,VALID,0,VALID,24.5125,VALID,65,VALID,0,
2011-01-09, 00:17:04,VALID,1006.8,VALID,0,VALID,103.962,VALID,0,VALID,24.4911,VALID,65,VALID,0.153516,
2011-01-09, 00:18:04,VALID,1006.83,VALID,0,VALID,103.985,VALID,0,VALID,24.5125,VALID,65,VALID,0.139844,
2011-01-09, 00:19:04,VALID,1006.81,VALID,0,VALID,103.977,VALID,0.105969,VALID,24.5125,VALID,65,VALID,0.250391,
2011-01-09, 00:20:04,VALID,1006.82,VALID,0,VALID,103.985,VALID,0.105969,VALID,24.493,VALID,65,VALID,0,
2011-01-09, 00:21:04,VALID,1006.78,VALID,0,VALID,103.977,VALID,0,VALID,24.5125,VALID,65,VALID,0,
2011-01-09, 00:22:04,VALID,1006.76,VALID,0,VALID,103.977,VALID,0,VALID,24.4911,VALID,65,VALID,0,
2011-01-09, 00:23:04,VALID,1006.77,VALID,0,VALID,103.985,VALID,0,VALID,24.5125,VALID,30,VALID,0.6625,
2011-01-09, 00:24:04,VALID,1006.75,VALID,0,VALID,103.985,VALID,0.105969,VALID,24.4717,VALID,13,VALID,0.00585938,
2011-01-09, 00:25:04,VALID,1006.72,VALID,0,VALID,103.977,VALID,0,VALID,24.4911,VALID,13,VALID,0.000390625,
2011-01-09, 00:26:04,VALID,1006.72,VALID,0,VALID,103.985,VALID,0,VALID,24.4911,VALID,335,VALID,0.413672,
2011-01-09, 00:27:04,VALID,1006.7,VALID,0,VALID,104,VALID,0.105969,VALID,24.4717,VALID,335,VALID,0.218359,
2011-01-09, 00:28:04,VALID,1006.67,VALID,0,VALID,103.977,VALID,0,VALID,24.5125,VALID,335,VALID,0,
2011-01-09, 00:29:04,VALID,1006.65,VALID,0,VALID,103.977,VALID,0,VALID,24.4911,VALID,335,VALID,0,
2011-01-09, 00:30:04,VALID,1006.63,VALID,0,VALID,104,VALID,0,VALID,24.5125,VALID,335,VALID,0.265625,
2011-01-09, 00:31:04,VALID,1006.59,VALID,0,VALID,103.954,VALID,0,VALID,24.4717,VALID,335,VALID,0.208984,
2011-01-09, 00:32:04,VALID,1006.59,VALID,0,VALID,103.97,VALID,0.105969,VALID,24.4911,VALID,335,VALID,0.128906,
2011-01-09, 00:33:04,VALID,1006.54,VALID,0,VALID,103.97,VALID,0,VALID,24.4911,VALID,335,VALID,0.376953,
2011-01-09, 00:34:04,VALID,1006.54,VALID,0,VALID,103.954,VALID,0.105969,VALID,24.4911,VALID,335,VALID,0,
2011-01-09, 00:35:04,VALID,1006.5,VALID,0,VALID,103.954,VALID,0.105969,VALID,24.4911,VALID,335,VALID,0,
2011-01-09, 00:36:04,VALID,1006.51,VALID,0,VALID,103.962,VALID,0,VALID,24.4717,VALID,335,VALID,0.158984,
2011-01-09, 00:37:04,VALID,1006.51,VALID,0,VALID,103.962,VALID,0,VALID,24.493,VALID,335,VALID,0.369922,
2011-01-09, 00:38:04,VALID,1006.49,VALID,0,VALID,103.954,VALID,0,VALID,24.4522,VALID,335,VALID,0.285156,
2011-01-09, 00:39:04,VALID,1006.51,VALID,0,VALID,103.947,VALID,0,VALID,24.4522,VALID,335,VALID,0.279297,
2011-01-09, 00:40:04,VALID,1006.54,VALID,0,VALID,103.954,VALID,0.105969,VALID,24.4717,VALID,335,VALID,0.0265625,
2011-01-09, 00:41:04,VALID,1006.54,VALID,0,VALID,103.947,VALID,0.105969,VALID,24.4522,VALID,335,VALID,0.352734,
2011-01-09, 00:42:04,VALID,1006.56,VALID,0,VALID,103.939,VALID,0,VALID,24.4735,VALID,335,VALID,0.404687,
2011-01-09, 00:43:04,VALID,1006.56,VALID,0,VALID,103.931,VALID,0,VALID,24.4717,VALID,335,VALID,0.00429688,
2011-01-09, 00:44:04,VALID,1006.61,VALID,0,VALID,103.916,VALID,0.105969,VALID,24.4717,VALID,335,VALID,0.319531,
2011-01-09, 00:45:04,VALID,1006.67,VALID,0,VALID,103.893,VALID,0,VALID,24.4717,VALID,334,VALID,0.45,
2011-01-09, 00:46:04,VALID,1006.65,VALID,0,VALID,103.886,VALID,0,VALID,24.4911,VALID,334,VALID,0,
2011-01-09, 00:47:04,VALID,1006.67,VALID,0,VALID,103.886,VALID,0.105969,VALID,24.5106,VALID,334,VALID,0.0109375,
2011-01-09, 00:48:04,VALID,1006.67,VALID,0,VALID,103.87,VALID,0,VALID,24.5106,VALID,334,VALID,0.100781,
2011-01-09, 00:49:04,VALID,1006.68,VALID,0,VALID,103.848,VALID,0.105969,VALID,24.532,VALID,334,VALID,0.532422,
2011-01-09, 00:50:04,VALID,1006.67,VALID,0,VALID,103.832,VALID,0,VALID,24.4911,VALID,334,VALID,0,
2011-01-09, 00:51:04,VALID,1006.69,VALID,0,VALID,103.848,VALID,0.105969,VALID,24.4911,VALID,334,VALID,0,
2011-01-09, 00:52:04,VALID,1006.66,VALID,0,VALID,103.817,VALID,0,VALID,24.4911,VALID,334,VALID,0,
2011-01-09, 00:53:04,VALID,1006.67,VALID,0,VALID,103.84,VALID,0,VALID,24.5106,VALID,334,VALID,0.00898437,
2011-01-09, 00:54:04,VALID,1006.68,VALID,0,VALID,103.832,VALID,0,VALID,24.4911,VALID,334,VALID,0.323047,
2011-01-09, 00:55:04,VALID,1006.71,VALID,0,VALID,103.817,VALID,0.105969,VALID,24.5106,VALID,334,VALID,0.324219,
2011-01-09, 00:56:04,VALID,1006.72,VALID,0,VALID,103.787,VALID,0.105969,VALID,24.5515,VALID,334,VALID,0,
2011-01-09, 00:57:04,VALID,1006.71,VALID,0,VALID,103.787,VALID,0,VALID,24.5515,VALID,334,VALID,0,
2011-01-09, 00:58:04,VALID,1006.7,VALID,0,VALID,103.787,VALID,0,VALID,24.5515,VALID,334,VALID,0,
2011-01-09, 00:59:04,VALID,1006.73,VALID,0,VALID,103.771,VALID,0.105969,VALID,24.532,VALID,334,VALID,0,
2011-01-09, 01:00:04,VALID,1006.72,VALID,0,VALID,103.748,VALID,0,VALID,24.5301,VALID,334,VALID,0,
2011-01-09, 01:01:04,VALID,1006.71,VALID,0,VALID,103.779,VALID,0,VALID,24.5515,VALID,334,VALID,0.003125,
2011-01-09, 01:02:04,VALID,1006.68,VALID,0,VALID,103.779,VALID,0,VALID,24.5515,VALID,334,VALID,0,
2011-01-09, 01:03:04,VALID,1006.68,VALID,0,VALID,103.779,VALID,0.105969,VALID,24.5515,VALID,334,VALID,0,
2011-01-09, 01:04:04,VALID,1006.63,VALID,0,VALID,103.794,VALID,0,VALID,24.5496,VALID,334,VALID,0.0683594,
2011-01-09, 01:05:04,VALID,1006.64,VALID,0,VALID,103.764,VALID,0,VALID,24.571,VALID,334,VALID,0,
2011-01-09, 01:06:04,VALID,1006.63,VALID,0,VALID,103.787,VALID,0,VALID,24.571,VALID,334,VALID,0,
2011-01-09, 01:07:04,VALID,1006.61,VALID,0,VALID,103.787,VALID,0.105969,VALID,24.5496,VALID,334,VALID,0,
2011-01-09, 01:08:04,VALID,1006.59,VALID,0,VALID,103.787,VALID,0,VALID,24.5301,VALID,334,VALID,0,
2011-01-09, 01:09:04,VALID,1006.6,VALID,0,VALID,103.771,VALID,0,VALID,24.532,VALID,334,VALID,0,
2011-01-09, 01:10:04,VALID,1006.57,VALID,0,VALID,103.787,VALID,0,VALID,24.5125,VALID,334,VALID,0,
2011-01-09, 01:11:04,VALID,1006.56,VALID,0,VALID,103.779,VALID,0,VALID,24.4735,VALID,334,VALID,0,
2011-01-09, 01:12:04,VALID,1006.58,VALID,0,VALID,103.787,VALID,0.105969,VALID,24.4522,VALID,334,VALID,0,
2011-01-09, 01:13:04,VALID,1006.54,VALID,0,VALID,103.809,VALID,0,VALID,24.4522,VALID,334,VALID,0,
2011-01-09, 01:14:04,VALID,1006.54,VALID,0,VALID,103.825,VALID,0,VALID,24.454,VALID,334,VALID,0,
2011-01-09, 01:15:04,VALID,1006.54,VALID,0,VALID,103.84,VALID,0,VALID,24.4345,VALID,334,VALID,0,
2011-01-09, 01:16:04,VALID,1006.49,VALID,0,VALID,103.863,VALID,0,VALID,24.4132,VALID,334,VALID,0,
2011-01-09, 01:17:04,VALID,1006.5,VALID,0,VALID,103.886,VALID,0,VALID,24.415,VALID,334,VALID,0,
2011-01-09, 01:18:04,VALID,1006.49,VALID,0,VALID,103.901,VALID,0,VALID,24.3956,VALID,334,VALID,0,
2011-01-09, 01:19:04,VALID,1006.47,VALID,0,VALID,103.931,VALID,0,VALID,24.3742,VALID,334,VALID,0,
2011-01-09, 01:20:04,VALID,1006.46,VALID,0,VALID,103.924,VALID,0,VALID,24.3566,VALID,334,VALID,0,
2011-01-09, 01:21:04,VALID,1006.43,VALID,0,VALID,103.931,VALID,0,VALID,24.3566,VALID,334,VALID,0,
2011-01-09, 01:22:04,VALID,1006.43,VALID,0,VALID,103.954,VALID,0.105969,VALID,24.3352,VALID,334,VALID,0,
2011-01-09, 01:23:04,VALID,1006.43,VALID,0,VALID,103.962,VALID,0,VALID,24.3566,VALID,334,VALID,0,
2011-01-09, 01:24:04,VALID,1006.4,VALID,0,VALID,103.985,VALID,0,VALID,24.3176,VALID,334,VALID,0,
2011-01-09, 01:25:04,VALID,1006.4,VALID,0,VALID,103.985,VALID,0,VALID,24.3371,VALID,334,VALID,0,
2011-01-09, 01:26:04,VALID,1006.43,VALID,0,VALID,103.992,VALID,0,VALID,24.3176,VALID,334,VALID,0,
2011-01-09, 01:27:04,VALID,1006.44,VALID,0,VALID,104,VALID,0,VALID,24.3176,VALID,334,VALID,0,
2011-01-09, 01:28:04,VALID,1006.42,VALID,0,VALID,104,VALID,0,VALID,24.2786,VALID,334,VALID,0,
2011-01-09, 01:29:04,VALID,1006.43,VALID,0,VALID,104,VALID,0,VALID,24.2786,VALID,334,VALID,0,
2011-01-09, 01:30:04,VALID,1006.42,VALID,0,VALID,104,VALID,0,VALID,24.2591,VALID,334,VALID,0,
2011-01-09, 01:31:04,VALID,1006.43,VALID,0,VALID,104,VALID,0,VALID,24.2591,VALID,334,VALID,0,
2011-01-09, 01:32:04,VALID,1006.43,VALID,0,VALID,104,VALID,0,VALID,24.2378,VALID,334,VALID,0,
2011-01-09, 01:33:04,VALID,1006.41,VALID,0,VALID,104,VALID,0,VALID,24.2378,VALID,334,VALID,0,
2011-01-09, 01:34:04,VALID,1006.42,VALID,0,VALID,104,VALID,0,VALID,24.2202,VALID,334,VALID,0,
2011-01-09, 01:35:04,VALID,1006.4,VALID,0,VALID,104,VALID,0,VALID,24.2396,VALID,334,VALID,0,
2011-01-09, 01:36:04,VALID,1006.38,VALID,0,VALID,104,VALID,0,VALID,24.1988,VALID,334,VALID,0,
2011-01-09, 01:37:04,VALID,1006.4,VALID,0,VALID,104,VALID,0,VALID,24.2396,VALID,334,VALID,0,
2011-01-09, 01:38:04,VALID,1006.41,VALID,0,VALID,104,VALID,0,VALID,24.2183,VALID,334,VALID,0,
2011-01-09, 01:39:04,VALID,1006.38,VALID,0,VALID,104,VALID,0,VALID,24.2396,VALID,334,VALID,0,
2011-01-09, 01:40:04,VALID,1006.39,VALID,0,VALID,104,VALID,0,VALID,24.2396,VALID,334,VALID,0,
2011-01-09, 01:41:04,VALID,1006.42,VALID,0,VALID,104,VALID,0.105969,VALID,24.1988,VALID,334,VALID,0,
2011-01-09, 01:42:04,VALID,1006.42,VALID,0,VALID,104,VALID,0,VALID,24.2007,VALID,334,VALID,0,
2011-01-09, 01:43:04,VALID,1006.42,VALID,0,VALID,104,VALID,0,VALID,24.1793,VALID,334,VALID,0,
2011-01-09, 01:44:04,VALID,1006.39,VALID,0,VALID,104,VALID,0.105969,VALID,24.1599,VALID,334,VALID,0,
2011-01-09, 01:45:04,VALID,1006.38,VALID,0,VALID,104,VALID,0,VALID,24.1812,VALID,334,VALID,0,
2011-01-09, 01:46:04,VALID,1006.38,VALID,0,VALID,104,VALID,0,VALID,24.1404,VALID,334,VALID,0,
2011-01-09, 01:47:04,VALID,1006.37,VALID,0,VALID,104,VALID,0,VALID,24.1617,VALID,334,VALID,0,
2011-01-09, 01:48:04,VALID,1006.33,VALID,0,VALID,104,VALID,0,VALID,24.1404,VALID,334,VALID,0,
2011-01-09, 01:49:04,VALID,1006.31,VALID,0,VALID,104,VALID,0,VALID,24.1422,VALID,334,VALID,0,
2011-01-09, 01:50:04,VALID,1006.31,VALID,0,VALID,104,VALID,0,VALID,24.1014,VALID,334,VALID,0,
2011-01-09, 01:51:04,VALID,1006.32,VALID,0,VALID,104,VALID,0.105969,VALID,24.0819,VALID,334,VALID,0,
2011-01-09, 01:52:04,VALID,1006.27,VALID,0,VALID,104,VALID,0,VALID,24.0624,VALID,334,VALID,0,
2011-01-09, 01:53:04,VALID,1006.27,VALID,0,VALID,104,VALID,0,VALID,24.0837,VALID,334,VALID,0.306641,
2011-01-09, 01:54:04,VALID,1006.25,VALID,0,VALID,104,VALID,0,VALID,24.1032,VALID,334,VALID,0.213281,
2011-01-09, 01:55:04,VALID,1006.25,VALID,0,VALID,103.985,VALID,0.105969,VALID,24.1014,VALID,334,VALID,0.11875,
2011-01-09, 01:56:04,VALID,1006.24,VALID,0,VALID,103.985,VALID,0.105969,VALID,24.1209,VALID,334,VALID,0,
2011-01-09, 01:57:04,VALID,1006.28,VALID,0,VALID,104,VALID,0,VALID,24.1209,VALID,334,VALID,0,
2011-01-09, 01:58:04,VALID,1006.27,VALID,0,VALID,104,VALID,0.105969,VALID,24.1209,VALID,334,VALID,0,
2011-01-09, 01:59:04,VALID,1006.27,VALID,0,VALID,104,VALID,0.105969,VALID,24.1014,VALID,334,VALID,0,
2011-01-09, 02:00:04,VALID,1006.29,VALID,0,VALID,104,VALID,0.105969,VALID,24.0819,VALID,334,VALID,0,
2011-01-09, 02:01:04,VALID,1006.29,VALID,0,VALID,104,VALID,0,VALID,24.1032,VALID,334,VALID,0,
2011-01-09, 02:02:04,VALID,1006.31,VALID,0,VALID,104,VALID,0,VALID,24.1032,VALID,334,VALID,0,
2011-01-09, 02:03:04,VALID,1006.3,VALID,0,VALID,103.985,VALID,0,VALID,24.1032,VALID,334,VALID,0,
2011-01-09, 02:04:04,VALID,1006.28,VALID,0,VALID,103.992,VALID,0,VALID,24.0819,VALID,334,VALID,0,
2011-01-09, 02:05:04,VALID,1006.27,VALID,0,VALID,103.985,VALID,0,VALID,24.0837,VALID,334,VALID,0.289063,
2011-01-09, 02:06:04,VALID,1006.24,VALID,0,VALID,104,VALID,0.105969,VALID,24.1032,VALID,334,VALID,0.242578,
2011-01-09, 02:07:04,VALID,1006.22,VALID,0,VALID,103.977,VALID,0.105969,VALID,24.1227,VALID,334,VALID,0.177344,
2011-01-09, 02:08:04,VALID,1006.21,VALID,0,VALID,103.992,VALID,0.105969,VALID,24.1227,VALID,334,VALID,0,
2011-01-09, 02:09:04,VALID,1006.21,VALID,0,VALID,103.985,VALID,0,VALID,24.1032,VALID,334,VALID,0.003125,
2011-01-09, 02:10:04,VALID,1006.19,VALID,0,VALID,103.97,VALID,0,VALID,24.1032,VALID,334,VALID,0,
2011-01-09, 02:11:04,VALID,1006.21,VALID,0,VALID,103.985,VALID,0,VALID,24.0624,VALID,334,VALID,0,
2011-01-09, 02:12:04,VALID,1006.18,VALID,0,VALID,104,VALID,0.105969,VALID,24.0624,VALID,334,VALID,0,
2011-01-09, 02:13:04,VALID,1006.18,VALID,0,VALID,104,VALID,0.105969,VALID,24.0624,VALID,334,VALID,0,
2011-01-09, 02:14:04,VALID,1006.18,VALID,0,VALID,104,VALID,0.105969,VALID,24.0429,VALID,334,VALID,0,
2011-01-09, 02:15:04,VALID,1006.17,VALID,0,VALID,104,VALID,0,VALID,24.0448,VALID,334,VALID,0,
2011-01-09, 02:16:04,VALID,1006.16,VALID,0,VALID,103.992,VALID,0.105969,VALID,24.0235,VALID,334,VALID,0,
2011-01-09, 02:17:04,VALID,1006.18,VALID,0,VALID,103.985,VALID,0,VALID,24.0448,VALID,334,VALID,0,
2011-01-09, 02:18:04,VALID,1006.19,VALID,0,VALID,103.992,VALID,0,VALID,24.0448,VALID,334,VALID,0,
2011-01-09, 02:19:04,VALID,1006.18,VALID,0,VALID,103.985,VALID,0.105969,VALID,24.0235,VALID,334,VALID,0,
2011-01-09, 02:20:04,VALID,1006.17,VALID,0,VALID,104,VALID,0,VALID,24.0235,VALID,334,VALID,0,
2011-01-09, 02:21:04,VALID,1006.16,VALID,0,VALID,103.977,VALID,0,VALID,23.9845,VALID,334,VALID,0,
2011-01-09, 02:22:04,VALID,1006.1,VALID,0,VALID,104,VALID,0,VALID,23.9863,VALID,334,VALID,0,
2011-01-09, 02:23:04,VALID,1006.1,VALID,0,VALID,104,VALID,0,VALID,23.9668,VALID,334,VALID,0,
2011-01-09, 02:24:04,VALID,1006.08,VALID,0,VALID,104,VALID,0,VALID,23.9473,VALID,334,VALID,0,
2011-01-09, 02:25:04,VALID,1006.04,VALID,0,VALID,104,VALID,0,VALID,23.9473,VALID,334,VALID,0.121875,
2011-01-09, 02:26:04,VALID,1006,VALID,0,VALID,104,VALID,0,VALID,23.9278,VALID,334,VALID,0,
2011-01-09, 02:27:04,VALID,1005.99,VALID,0,VALID,104,VALID,0,VALID,23.9297,VALID,334,VALID,0,
2011-01-09, 02:28:04,VALID,1005.92,VALID,0,VALID,103.985,VALID,0,VALID,23.9084,VALID,334,VALID,0,
2011-01-09, 02:29:04,VALID,1005.92,VALID,0,VALID,103.97,VALID,0,VALID,23.8889,VALID,334,VALID,0,
2011-01-09, 02:30:04,VALID,1005.89,VALID,0,VALID,103.962,VALID,0,VALID,23.9297,VALID,334,VALID,0,
2011-01-09, 02:31:04,VALID,1005.89,VALID,0,VALID,103.947,VALID,0,VALID,23.9084,VALID,334,VALID,0,
2011-01-09, 02:32:04,VALID,1005.87,VALID,0,VALID,103.954,VALID,0,VALID,23.9297,VALID,334,VALID,0,
2011-01-09, 02:33:04,VALID,1005.87,VALID,0,VALID,103.962,VALID,0,VALID,23.9102,VALID,334,VALID,0,
2011-01-09, 02:34:04,VALID,1005.86,VALID,0,VALID,103.97,VALID,0,VALID,23.9102,VALID,334,VALID,0,
2011-01-09, 02:35:04,VALID,1005.86,VALID,0,VALID,103.977,VALID,0,VALID,23.8694,VALID,334,VALID,0,
2011-01-09, 02:36:04,VALID,1005.84,VALID,0,VALID,103.954,VALID,0,VALID,23.8907,VALID,334,VALID,0.279297,
2011-01-09, 02:37:04,VALID,1005.84,VALID,0,VALID,103.962,VALID,0,VALID,23.8499,VALID,334,VALID,0.159766,
2011-01-09, 02:38:04,VALID,1005.85,VALID,0,VALID,103.97,VALID,0,VALID,23.8304,VALID,334,VALID,0.205469,
2011-01-09, 02:39:04,VALID,1005.85,VALID,0,VALID,103.947,VALID,0,VALID,23.8109,VALID,334,VALID,0.249609,
2011-01-09, 02:40:04,VALID,1005.85,VALID,0,VALID,103.962,VALID,0,VALID,23.8304,VALID,334,VALID,0.106641,
2011-01-09, 02:41:04,VALID,1005.84,VALID,0,VALID,103.931,VALID,0.105969,VALID,23.8091,VALID,334,VALID,0.158594,
2011-01-09, 02:42:04,VALID,1005.8,VALID,0,VALID,103.916,VALID,0.105969,VALID,23.8304,VALID,334,VALID,0,
2011-01-09, 02:43:04,VALID,1005.85,VALID,0,VALID,103.901,VALID,0.105969,VALID,23.8286,VALID,334,VALID,0,
2011-01-09, 02:44:04,VALID,1005.84,VALID,0,VALID,103.886,VALID,0.105969,VALID,23.8091,VALID,334,VALID,0.065625,
2011-01-09, 02:45:04,VALID,1005.83,VALID,0,VALID,103.893,VALID,0.105969,VALID,23.8286,VALID,334,VALID,0.261328,
2011-01-09, 02:46:04,VALID,1005.85,VALID,0,VALID,103.878,VALID,0.105969,VALID,23.8499,VALID,334,VALID,0.235938,
2011-01-09, 02:47:04,VALID,1005.8,VALID,0,VALID,103.855,VALID,0.105969,VALID,23.8286,VALID,334,VALID,0.234766,
2011-01-09, 02:48:04,VALID,1005.79,VALID,0,VALID,103.848,VALID,0.105969,VALID,23.8694,VALID,334,VALID,0.390234,
2011-01-09, 02:49:04,VALID,1005.75,VALID,0,VALID,103.825,VALID,0.105969,VALID,23.8889,VALID,355,VALID,0.5375,
2011-01-09, 02:50:04,VALID,1005.74,VALID,0,VALID,103.817,VALID,0,VALID,23.8871,VALID,355,VALID,0.471484,
2011-01-09, 02:51:04,VALID,1005.71,VALID,0,VALID,103.817,VALID,0,VALID,23.9065,VALID,355,VALID,0.5,
2011-01-09, 02:52:04,VALID,1005.67,VALID,0,VALID,103.809,VALID,0.105969,VALID,23.9065,VALID,355,VALID,0.501562,
2011-01-09, 02:53:04,VALID,1005.64,VALID,0,VALID,103.832,VALID,0.105969,VALID,23.9065,VALID,355,VALID,0.537891,
2011-01-09, 02:54:04,VALID,1005.63,VALID,0,VALID,103.817,VALID,0.105969,VALID,23.9065,VALID,355,VALID,0.591797,
2011-01-09, 02:55:04,VALID,1005.61,VALID,0,VALID,103.848,VALID,0.105969,VALID,23.9065,VALID,355,VALID,0.587891,
2011-01-09, 02:56:04,VALID,1005.58,VALID,0,VALID,103.848,VALID,0.105969,VALID,23.9065,VALID,355,VALID,0.573047,
2011-01-09, 02:57:04,VALID,1005.59,VALID,0,VALID,103.855,VALID,0,VALID,23.8676,VALID,59,VALID,0.897266,
2011-01-09, 02:58:04,VALID,1005.58,VALID,0,VALID,103.87,VALID,0,VALID,23.8481,VALID,59,VALID,0.509766,
2011-01-09, 02:59:04,VALID,1005.56,VALID,0,VALID,103.87,VALID,0.105969,VALID,23.8481,VALID,60,VALID,0.650781,
2011-01-09, 03:00:04,VALID,1005.55,VALID,0,VALID,103.87,VALID,0.105969,VALID,23.8481,VALID,60,VALID,0.528906,
2011-01-09, 03:01:04,VALID,1005.51,VALID,0,VALID,103.87,VALID,0.105969,VALID,23.8286,VALID,60,VALID,0.356641,
2011-01-09, 03:02:04,VALID,1005.5,VALID,0,VALID,103.878,VALID,0.105969,VALID,23.8286,VALID,60,VALID,0.372266,
2011-01-09, 03:03:04,VALID,1005.45,VALID,0,VALID,103.863,VALID,0.105969,VALID,23.8091,VALID,60,VALID,0.357031,
2011-01-09, 03:04:04,VALID,1005.44,VALID,0,VALID,103.886,VALID,0.105969,VALID,23.7896,VALID,60,VALID,0.200391,
2011-01-09, 03:05:04,VALID,1005.41,VALID,0,VALID,103.855,VALID,0.105969,VALID,23.8091,VALID,60,VALID,0.267578,
2011-01-09, 03:06:04,VALID,1005.43,VALID,0,VALID,103.87,VALID,0,VALID,23.8109,VALID,60,VALID,0,
2011-01-09, 03:07:04,VALID,1005.38,VALID,0,VALID,103.863,VALID,0.105969,VALID,23.7914,VALID,59,VALID,0.444922,
2011-01-09, 03:08:04,VALID,1005.38,VALID,0,VALID,103.878,VALID,0.105969,VALID,23.7896,VALID,58,VALID,0.316016,
2011-01-09, 03:09:04,VALID,1005.37,VALID,0,VALID,103.87,VALID,0.105969,VALID,23.7701,VALID,68,VALID,0.782031,
2011-01-09, 03:10:04,VALID,1005.37,VALID,0,VALID,103.863,VALID,0,VALID,23.7525,VALID,62,VALID,0.536328,
2011-01-09, 03:11:04,VALID,1005.35,VALID,0,VALID,103.878,VALID,0,VALID,23.7525,VALID,70,VALID,0.591797,
2011-01-09, 03:12:04,VALID,1005.32,VALID,0,VALID,103.87,VALID,0,VALID,23.733,VALID,70,VALID,0.486328,
2011-01-09, 03:13:04,VALID,1005.29,VALID,0,VALID,103.855,VALID,0,VALID,23.7525,VALID,70,VALID,0.589844,
2011-01-09, 03:14:04,VALID,1005.26,VALID,0,VALID,103.848,VALID,0,VALID,23.7543,VALID,70,VALID,0.277734,
2011-01-09, 03:15:04,VALID,1005.22,VALID,0,VALID,103.825,VALID,0,VALID,23.733,VALID,70,VALID,0.176953,
2011-01-09, 03:16:04,VALID,1005.25,VALID,0,VALID,103.84,VALID,0,VALID,23.733,VALID,70,VALID,0.0984375,
2011-01-09, 03:17:04,VALID,1005.21,VALID,0,VALID,103.848,VALID,0,VALID,23.733,VALID,74,VALID,0.376563,
2011-01-09, 03:18:04,VALID,1005.19,VALID,0,VALID,103.855,VALID,0,VALID,23.7135,VALID,74,VALID,0.240234,
2011-01-09, 03:19:04,VALID,1005.18,VALID,0,VALID,103.832,VALID,0,VALID,23.733,VALID,74,VALID,0.527344,
2011-01-09, 03:20:04,VALID,1005.2,VALID,0,VALID,103.817,VALID,0,VALID,23.733,VALID,74,VALID,0.471875,
2011-01-09, 03:21:04,VALID,1005.19,VALID,0,VALID,103.84,VALID,0,VALID,23.7135,VALID,74,VALID,0.19375,
2011-01-09, 03:22:04,VALID,1005.17,VALID,0,VALID,103.878,VALID,0,VALID,23.694,VALID,74,VALID,0.375781,
2011-01-09, 03:23:04,VALID,1005.15,VALID,0,VALID,103.855,VALID,0,VALID,23.694,VALID,74,VALID,0.0730469,
2011-01-09, 03:24:04,VALID,1005.15,VALID,0,VALID,103.84,VALID,0,VALID,23.6958,VALID,74,VALID,0.501562,
2011-01-09, 03:25:04,VALID,1005.12,VALID,0,VALID,103.832,VALID,0.105969,VALID,23.7135,VALID,74,VALID,0.439844,
2011-01-09, 03:26:04,VALID,1005.1,VALID,0,VALID,103.779,VALID,0.105969,VALID,23.733,VALID,74,VALID,0.573047,
2011-01-09, 03:27:04,VALID,1005.08,VALID,0,VALID,103.787,VALID,0.105969,VALID,23.7117,VALID,74,VALID,0.282031,
2011-01-09, 03:28:04,VALID,1005.07,VALID,0,VALID,103.787,VALID,0.105969,VALID,23.7525,VALID,74,VALID,0.0347656,
2011-01-09, 03:29:04,VALID,1005.04,VALID,0,VALID,103.794,VALID,0.105969,VALID,23.7525,VALID,74,VALID,0.485938,
2011-01-09, 03:30:04,VALID,1005.06,VALID,0,VALID,103.779,VALID,0.105969,VALID,23.7525,VALID,72,VALID,0.469531,
2011-01-09, 03:31:04,VALID,1005.05,VALID,0,VALID,103.787,VALID,0,VALID,23.7525,VALID,73,VALID,0.805078,
2011-01-09, 03:32:04,VALID,1005.06,VALID,0,VALID,103.787,VALID,0.105969,VALID,23.7312,VALID,70,VALID,0.296875,
2011-01-09, 03:33:04,VALID,1005.02,VALID,0,VALID,103.817,VALID,0.105969,VALID,23.7117,VALID,72,VALID,0.553125,
2011-01-09, 03:34:04,VALID,1005,VALID,0,VALID,103.802,VALID,0.105969,VALID,23.7117,VALID,65,VALID,0.408203,
2011-01-09, 03:35:04,VALID,1005.01,VALID,0,VALID,103.809,VALID,0.105969,VALID,23.733,VALID,61,VALID,0.205469,
2011-01-09, 03:36:04,VALID,1004.98,VALID,0,VALID,103.794,VALID,0.105969,VALID,23.7117,VALID,61,VALID,0.339453,
2011-01-09, 03:37:04,VALID,1005,VALID,0,VALID,103.825,VALID,0.105969,VALID,23.7117,VALID,61,VALID,0.1875,
2011-01-09, 03:38:04,VALID,1004.98,VALID,0,VALID,103.794,VALID,0.105969,VALID,23.7117,VALID,64,VALID,1.1043,
2011-01-09, 03:39:04,VALID,1004.94,VALID,0,VALID,103.802,VALID,0,VALID,23.7117,VALID,64,VALID,0.462109,
2011-01-09, 03:40:04,VALID,1004.92,VALID,0,VALID,103.794,VALID,0,VALID,23.7117,VALID,76,VALID,0.523047,
2011-01-09, 03:41:04,VALID,1004.91,VALID,0,VALID,103.779,VALID,0,VALID,23.733,VALID,77,VALID,1.0082,
2011-01-09, 03:42:04,VALID,1004.88,VALID,0,VALID,103.787,VALID,0,VALID,23.7117,VALID,82,VALID,0.519922,
2011-01-09, 03:43:04,VALID,1004.89,VALID,0,VALID,103.779,VALID,0,VALID,23.733,VALID,82,VALID,0.45,
2011-01-09, 03:44:04,VALID,1004.88,VALID,0,VALID,103.779,VALID,0,VALID,23.7525,VALID,82,VALID,0.619531,
2011-01-09, 03:45:04,VALID,1004.86,VALID,0,VALID,103.756,VALID,0,VALID,23.733,VALID,84,VALID,0.844922,
2011-01-09, 03:46:04,VALID,1004.87,VALID,0,VALID,103.771,VALID,0.105969,VALID,23.772,VALID,101,VALID,1,
2011-01-09, 03:47:04,VALID,1004.89,VALID,0,VALID,103.764,VALID,0.105969,VALID,23.7507,VALID,102,VALID,0.951953,
2011-01-09, 03:48:04,VALID,1004.86,VALID,0,VALID,103.764,VALID,0,VALID,23.7507,VALID,101,VALID,0.971094,
2011-01-09, 03:49:04,VALID,1004.9,VALID,0,VALID,103.794,VALID,0,VALID,23.7525,VALID,45,VALID,0,